Regional Weather Roundup
Issued by NWS

Home | Current Version | Previous Version | Text Only | Print | Product List | Glossary On
Versions: 1 2 3 4 5 6 7 8 9 10 11 12 13 14 15 16 17 18 19 20 21 22 23 24 25 26 27 28 29 30 31 32 33 34 35 36 37 38 39 40 41 42 43 44 45 46 47 48 49 50
000
ASUS45 KTFX 202210
RWRMT
MONTANA REGIONAL WEATHER ROUNDUP
NATIONAL WEATHER SERVICE GREAT FALLS MT
300 PM MST MON NOV 20 2017

NOTE: "FAIR" INDICATES FEW OR NO CLOUDS BELOW 12000 FEET WITH NO
SIGNIFICANT WEATHER AND/OR OBSTRUCTIONS TO VISIBILITY.

MTZ001>007-043-202300-
WEST OF THE DIVIDE

CITY           SKY/WX    TMP DP  RH WIND       PRES   REMARKS
KALISPELL      LGT RAIN  41  40  96 SE9       29.73R FOG
MISSOULA       LGT RAIN  41  41 100 CALM      29.74S
BUTTE          LGT RAIN  42  32  67 SW10      29.80R
MULLAN PASS    SNOW      30  28  92 VRB3      29.68F VSB 1/4
ANACONDA         N/A     41  34  75 S16G24    29.75S
DEER LODGE       N/A     39  34  81 SE14G20   29.75R WCI  31
EUREKA           N/A     43  36  75 MISG      29.71R
HAMILTON         N/A     43  39  87 S10       29.75F
LIBBY            N/A     37  37 100 CALM      29.70S
PLAINS           N/A     41  37  85 CALM      29.79R
RONAN            N/A     42  39  89 SE1       29.82R
$$

MTZ008-052>055-202300-
SOUTHWEST MONTANA

CITY           SKY/WX    TMP DP  RH WIND       PRES   REMARKS
BOZEMAN        CLOUDY    43  31  62 SW13      29.78R
DILLON         CLOUDY    39  33  79 S12       29.84R WCI  32
W YELLOWSTONE  SNOW      28  27  93 SW8G14    29.96R VSB 1/2 WCI  20
ENNIS          CLOUDY    39  27  60 S25G36    29.91R WCI  28
TWIN BRIDGES     N/A     44  30  58 S2        29.85R
$$

MTZ009-010-012-014-046-048-049-054-202300-
EAST SLOPES AND CENTRAL MONTANA

CITY           SKY/WX    TMP DP  RH WIND       PRES   REMARKS
CUT BANK       CLOUDY    29  18  63 NE8       29.76R WCI  21
GREAT FALLS    CLOUDY    36  23  59 NE13      29.74R WCI  27
MALMSTROM AFB  PTSUNNY   35  24  65 N15       29.75R WCI  25
HELENA         CLOUDY    48  35  60 S6        29.72S
BOWMANS CRNR   PTSUNNY   33  27  78 N12       29.71R WCI  25
CHOTEAU          N/A     32  25  74 NE9       29.76R WCI  24
FAIRFIELD      PTSUNNY   33  24  71 N9        29.74R WCI  25
POWER          PTSUNNY   33  24  70 NE10      29.74R WCI  25
RAYNESFORD     PTSUNNY   37  28  71 W10       29.72R WCI  30
ULM            PTSUNNY   37  27  68 NE15      29.73R WCI  28
$$

MTZ011-013-016-021-045-047-050-051-202300-
NORTH CENTRAL MONTANA

CITY           SKY/WX    TMP DP  RH WIND       PRES   REMARKS
HAVRE          CLOUDY    32  23  69 N9        29.79R WCI  24
LEWISTOWN      PTSUNNY   40  29  64 N8        29.69R
N BAR RANCH    PTSUNNY   41  28  60 NE3       29.72R
CHINOOK          N/A     32  21  64 CALM      29.81R
DENTON         PTSUNNY   35  26  70 MISG      29.70R
GEYSER         PTSUNNY   36  28  71 NE9       29.70R WCI  29
GRASS RANGE    CLOUDY    39  28  66 E9        29.68R
STANFORD       PTSUNNY   34  28  79 NE12      29.70R WCI  26
WINIFRED       PTSUNNY   36  27  69 NE12      29.72R WCI  28
$$

MTZ017>020-022>027-061-062-202300-
NORTHEAST MONTANA

CITY           SKY/WX    TMP DP  RH WIND       PRES   REMARKS
GLASGOW        CLOUDY    35  18  49 NW17      29.74R WCI  25
GLENDIVE       CLOUDY    39  22  50 N20G28    29.71R WCI  29
JORDAN           N/A     37  22  54 N14       29.74R WCI  28
SIDNEY         MOCLDY    39  18  42 NW15G23   29.70R WCI  31
WOLF POINT     CLOUDY    39  15  37 W13       29.74R WCI  31
MALTA          CLOUDY    34  25  69 NW9       29.78R WCI  26
PLENTYWOOD       N/A     28  19  69 NW18G24   29.68R WCI  16
POPLAR           N/A     37  12  35 NW18G25   29.73R WCI  27
SCOBEY           N/A     28  10  46 NW24      29.70  WCI  14
$$

MTZ028>42-056>058-202300-
SOUTHCENTRAL AND SOUTHEAST MONTANA

CITY           SKY/WX    TMP DP  RH WIND       PRES   REMARKS
BAKER          FAIR      47  28  47 NW24G36   29.65R
BILLINGS       CLOUDY    53  27  36 W7        29.69R
LIVINGSTON     LGT RAIN  40  32  73 W30G38    29.76R
MILES CITY     FAIR      46  29  51 N20       29.68R
BIG TIMBER     MOSUNNY   43  32  65 W31G41    29.75R
EKALAKA          N/A     47  21  35 NW12      29.68R
FORSYTH          N/A     48  28  46 N10       29.69R
LAUREL           N/A     54  28  37 W10G20    29.70R
$$

REGIONAL REPORTS...DAKOTAS

CITY           SKY/WX    TMP DP  RH WIND       PRES   REMARKS
WILLISTON      CLOUDY    37  17  44 NW30G38   29.66R WCI  24
MINOT          FAIR      35  22  58 W29G45    29.52R WCI  22
DICKINSON      FAIR      46  25  43 NW30G37   29.59R
BEACH          CLOUDY    41  25  52 N23G29    29.69R
CROSBY         MOCLDY    28  21  74 NW23G32   29.64R WCI  14
TIOGA          FAIR      30  19  64 NW29G35   29.61R WCI  15
WATFORD CITY   FAIR      37  21  52 NW16G24   29.65R WCI  28
BISMARCK       FAIR      54  29  38 NW24G39   29.54R
GRAND FORKS    FAIR      43  30  60 W17       29.30R
FARGO          FAIR      53  26  35 W17       29.34S
BUFFALO SD       N/A     53  23  31 NW21      29.58R
RAPID CITY     FAIR      61  20  20 N22G30    29.64R
$$

REGIONAL REPORTS...WYOMING/IDAHO/WASHINGTON

CITY           SKY/WX    TMP DP  RH WIND       PRES   REMARKS
GILLETTE       FAIR      53  22  29 W5        29.71R
SHERIDAN       PTSUNNY   52  28  39 N5        29.68F
BUFFALO WY     FAIR      52  25  35 SE9       29.72S
CODY           FAIR      48  27  44 W17G29    29.78R
YELLOWSTONE LA   N/A     28  25  88 VRB5      29.97R
IDAHO FALLS    CLOUDY    39  33  79 SW13      30.03R WCI  31
SALMON         CLOUDY    38  32  79 N8        29.87F
BOISE          LGT RAIN  47  40  76 SE14      29.94R
SPOKANE        CLOUDY    45  44  97 S10       29.65R
$$

REGIONAL REPORTS...ALBERTA

CITY           SKY/WX    TMP DP  RH WIND       PRES   REMARKS
EDMONTON       CLEAR      1  -9  60 NW6       29.97R WCI -10
CALGARY        FLURRIES  19  14  79 NE10      29.82R WCI   8
LETHBRIDGE     CLOUDY    27  21  80 NE15      29.82R WCI  15
MEDICINE HAT   FLURRIES  19  12  73 N13       29.89R WCI   7
$$

REGIONAL REPORTS...SASKATCHEWAN

CITY           SKY/WX    TMP DP  RH WIND       PRES   REMARKS
SWIFT CURRENT  CLOUDY    12   3  67 NW29G35   29.77  WCI  -9
REGINA         SNOWSHWR  14  10  85 NW31G38   29.67R VSB 3/4 WCI  -7
SASKATOON      MOCLDY     9   1  72 NW29G35   29.76R WCI -14
$$



USA.gov is the U.S. government's official web portal to all federal, state and local government web resources and services.